CDT,Max TemperatureF,Mean TemperatureF,Min TemperatureF,Max Dew PointF,MeanDew PointF,Min DewpointF,Max Humidity, Mean Humidity, Min Humidity, Max Sea Level PressureIn, Mean Sea Level PressureIn, Min Sea Level PressureIn, Max VisibilityMiles, Mean VisibilityMiles, Min VisibilityMiles, Max Wind SpeedMPH, Mean Wind SpeedMPH, Max Gust SpeedMPH,PrecipitationIn, CloudCover, Events, WindDirDegrees
2012-5-1,87,74,62,67,64,60,96,70,46,30.08,30.03,29.96,10,8,1,10,2,17,0.00,0,,152
2012-5-2,81,74,66,73,69,66,100,92,74,30.00,29.97,29.94,10,9,2,9,4,18,0.20,6,Rain-Thunderstorm,100
2012-5-3,88,76,66,72,68,61,100,80,41,30.04,30.00,29.95,10,10,5,10,5,,0.00,4,,156
2012-5-4,90,78,69,72,70,67,100,83,51,30.06,30.01,29.96,10,9,6,6,3,,0.00,5,,167
2012-5-5,90,78,68,71,68,64,97,77,45,30.00,29.95,29.88,10,9,5,16,3,21,0.06,2,Rain-Thunderstorm,171
2012-5-6,89,76,64,72,68,63,100,81,48,30.00,29.94,29.87,10,8,2,8,1,,0.01,3,Rain,156
2012-5-7,89,77,66,70,66,64,100,85,49,29.94,29.89,29.83,10,7,0,28,4,39,0.98,3,Fog-Rain-Thunderstorm,53
2012-5-8,87,75,64,68,65,63,100,80,48,29.94,29.90,29.83,10,9,7,9,2,,0.00,3,,357
2012-5-9,80,71,61,68,64,57,96,78,48,29.95,29.90,29.86,10,10,8,13,5,,0.01,4,Rain,351
2012-5-10,81,68,55,58,52,43,97,63,28,29.99,29.94,29.90,10,10,10,7,1,,0.00,0,,68
2012-5-11,71,65,59,63,58,54,93,79,61,30.04,29.99,29.94,10,10,5,5,1,,0.07,3,Rain,77
2012-5-12,81,72,64,70,65,61,96,84,67,30.06,30.02,29.98,10,10,6,12,3,17,0.01,5,Rain-Thunderstorm,175
2012-5-13,77,70,64,67,64,62,100,88,64,30.09,30.04,30.00,10,8,2,10,5,,0.07,7,Rain,301
2012-5-14,82,70,60,63,60,54,100,74,39,30.07,30.01,29.94,10,8,2,12,3,16,0.01,3,,360
2012-5-15,84,70,59,62,58,54,90,64,37,30.03,29.99,29.96,10,10,9,6,1,,0.00,0,,360
2012-5-16,84,75,64,62,59,51,90,61,33,30.04,29.99,29.94,10,10,9,9,3,,0.00,1,,30
2012-5-17,87,72,59,64,58,52,96,63,31,30.01,29.97,29.92,10,9,5,7,2,,0.00,1,,344
2012-5-18,89,74,60,63,58,53,96,62,31,30.00,29.96,29.92,10,10,7,6,1,,0.00,0,,120
2012-5-19,88,74,62,65,61,57,93,65,36,30.05,30.00,29.96,10,9,5,7,1,,0.00,2,,118
2012-5-20,89,75,63,67,60,55,97,63,33,30.12,30.06,30.02,10,9,6,8,2,,0.00,1,,11
2012-5-21,89,74,60,65,60,56,93,63,34,30.09,30.03,29.97,10,9,6,10,2,18,0.00,0,,344
2012-5-22,88,76,66,65,61,56,90,62,36,30.00,29.93,29.86,10,9,4,10,3,,0.00,1,,357
2012-5-23,91,76,62,69,62,56,97,65,35,29.88,29.83,29.78,10,9,2,13,3,,0.13,2,Rain-Thunderstorm,165
2012-5-24,90,76,64,70,65,62,100,75,40,29.89,29.85,29.80,10,7,2,17,4,21,0.00,1,,170
2012-5-25,90,76,64,70,67,62,100,75,40,30.07,30.01,29.90,10,8,2,10,4,,0.00,1,,168
2012-5-26,93,78,64,69,64,57,97,66,31,30.12,30.06,30.02,10,9,5,8,1,,0.01,0,,114
2012-5-27,93,81,69,72,67,64,90,63,38,30.04,29.98,29.91,10,9,8,6,1,,0.00,2,,23
2012-5-28,95,82,71,74,70,64,96,74,38,29.95,29.90,29.85,10,6,2,18,3,,0.12,3,Rain,312
2012-5-29,95,82,72,74,66,59,96,63,32,29.93,29.88,29.83,10,10,6,12,4,17,0.00,1,,276
2012-5-30,91,80,68,73,69,64,100,78,41,29.93,29.87,29.78,10,8,0,10,3,17,0.00,4,Fog-Rain-Thunderstorm,217
2012-5-31,90,78,66,71,66,64,100,86,45,29.88,29.82,29.76,10,7,0,24,5,46,1.08,5,Fog-Rain-Thunderstorm,246